Sea Commander — VGGC — position and weather

sailwx.info

Track history (hours):
 
Tides and Currents Weather Stations Pressure Air Temp Water Temp Dewpoint Dewpoint Depression Visibility Wind Speed Wind Dir Waves Ship Positions

Sea Commander

Last reported at 2014-Oct-26 06:33 UTC. Time now 2014-Oct-26 08:35 UTC.
Position N 54°27' W 130°33'.

Length 44 m; draft 7 m.

Type: Tug. MMSI: 316001043.

Date/timePositionNaut miles runAvg speedWind from/ knotsBaromVisibWave heightAir tempDewpointWater temp
2014-Oct-26 06:33N 54°27' W 130°33'1010.1
2014-Oct-26 05:33N 54°17' W 130°33'7 7.0
2014-Oct-26 04:32N 54°15' W 130°21'7 6.9
2014-Oct-26 03:33N 54°21' W 130°16'0 0.0
2014-Oct-26 02:33N 54°21' W 130°16'0 0.0
2014-Oct-26 01:33N 54°21' W 130°16'0 0.0
2014-Oct-26 00:33N 54°21' W 130°16'0 0.0
2014-Oct-25 23:33N 54°21' W 130°16'0 0.0
2014-Oct-25 22:33N 54°21' W 130°16'0 0.0
2014-Oct-25 21:33N 54°21' W 130°16'0 0.0
2014-Oct-25 20:33N 54°21' W 130°16'0 0.0
2014-Oct-25 19:33N 54°21' W 130°16'0 0.0
2014-Oct-25 18:33N 54°21' W 130°16'0 0.0
2014-Oct-25 17:33N 54°21' W 130°16'3 0.2
2014-Oct-25 02:23N 54°19' W 130°19'0 0.0
2014-Oct-25 01:33N 54°19' W 130°19'0 0.0
2014-Oct-25 00:33N 54°19' W 130°19'0 0.0
2014-Oct-24 23:33N 54°19' W 130°19'3 2.6
2014-Oct-24 22:33N 54°21' W 130°16'0 0.1
2014-Oct-24 21:33N 54°21' W 130°16'0 0.0
2014-Oct-24 20:33N 54°21' W 130°16'0 0.0
2014-Oct-24 19:33N 54°21' W 130°16'0 0.0
2014-Oct-24 18:33N 54°21' W 130°16'0 0.0
2014-Oct-24 17:33N 54°21' W 130°16'0 0.0
2014-Oct-24 04:33N 54°21' W 130°16'0 0.0
2014-Oct-24 03:33N 54°21' W 130°16'0 0.0
2014-Oct-24 02:33N 54°21' W 130°16'0 0.0
2014-Oct-24 01:33N 54°21' W 130°16'0 0.0
2014-Oct-24 00:33N 54°21' W 130°16'0 0.0
2014-Oct-23 23:33N 54°21' W 130°16'0 0.0
2014-Oct-23 22:33N 54°21' W 130°16'0 0.0
2014-Oct-23 21:33N 54°21' W 130°16'0 0.0
2014-Oct-23 20:33N 54°21' W 130°16'0 0.0
2014-Oct-23 19:33N 54°21' W 130°16'  
2014-Oct-16 21:33N 54°21' W 130°16'0 0.0
2014-Oct-16 20:33N 54°21' W 130°16'3 2.6
2014-Oct-16 19:33N 54°19' W 130°19'0 0.0
2014-Oct-16 18:33N 54°19' W 130°19'0 0.0
2014-Oct-16 17:33N 54°19' W 130°19'  
Track history (hours):
 
Tides and Currents Weather Stations Pressure Air Temp Water Temp Dewpoint Dewpoint Depression Visibility Wind Speed Wind Dir Waves Ship Positions

Sea Commander

Last reported at 2014-Oct-26 06:33 UTC. Time now 2014-Oct-26 08:35 UTC.
Position N 54°27' W 130°33'.

Length 44 m; draft 7 m.

Type: Tug. MMSI: 316001043.

Date/timePositionNaut miles runAvg speedWind from/ knotsBaromVisibWave heightAir tempDewpointWater temp
2014-Oct-26 06:33N 54°27' W 130°33'1010.1
2014-Oct-26 05:33N 54°17' W 130°33'7 7.0
2014-Oct-26 04:32N 54°15' W 130°21'7 6.9
2014-Oct-26 03:33N 54°21' W 130°16'0 0.0
2014-Oct-26 02:33N 54°21' W 130°16'0 0.0
2014-Oct-26 01:33N 54°21' W 130°16'0 0.0
2014-Oct-26 00:33N 54°21' W 130°16'0 0.0
2014-Oct-25 23:33N 54°21' W 130°16'0 0.0
2014-Oct-25 22:33N 54°21' W 130°16'0 0.0
2014-Oct-25 21:33N 54°21' W 130°16'0 0.0
2014-Oct-25 20:33N 54°21' W 130°16'0 0.0
2014-Oct-25 19:33N 54°21' W 130°16'0 0.0
2014-Oct-25 18:33N 54°21' W 130°16'0 0.0
2014-Oct-25 17:33N 54°21' W 130°16'3 0.2
2014-Oct-25 02:23N 54°19' W 130°19'0 0.0
2014-Oct-25 01:33N 54°19' W 130°19'0 0.0
2014-Oct-25 00:33N 54°19' W 130°19'0 0.0
2014-Oct-24 23:33N 54°19' W 130°19'3 2.6
2014-Oct-24 22:33N 54°21' W 130°16'0 0.1
2014-Oct-24 21:33N 54°21' W 130°16'0 0.0
2014-Oct-24 20:33N 54°21' W 130°16'0 0.0
2014-Oct-24 19:33N 54°21' W 130°16'0 0.0
2014-Oct-24 18:33N 54°21' W 130°16'0 0.0
2014-Oct-24 17:33N 54°21' W 130°16'0 0.0
2014-Oct-24 04:33N 54°21' W 130°16'0 0.0
2014-Oct-24 03:33N 54°21' W 130°16'0 0.0
2014-Oct-24 02:33N 54°21' W 130°16'0 0.0
2014-Oct-24 01:33N 54°21' W 130°16'0 0.0
2014-Oct-24 00:33N 54°21' W 130°16'0 0.0
2014-Oct-23 23:33N 54°21' W 130°16'0 0.0
2014-Oct-23 22:33N 54°21' W 130°16'0 0.0
2014-Oct-23 21:33N 54°21' W 130°16'0 0.0
2014-Oct-23 20:33N 54°21' W 130°16'0 0.0
2014-Oct-23 19:33N 54°21' W 130°16'  
2014-Oct-16 21:33N 54°21' W 130°16'0 0.0
2014-Oct-16 20:33N 54°21' W 130°16'3 2.6
2014-Oct-16 19:33N 54°19' W 130°19'0 0.0
2014-Oct-16 18:33N 54°19' W 130°19'0 0.0
2014-Oct-16 17:33N 54°19' W 130°19'  

Dump ship's entire track history